NOAA 15 (25338 NORAD) Tracking and Keplerian Element Data

This shows tracking and keplerian element data for the satellite.

Feedback or suggestion? Click here.




ElementValue
Catalog25338
NameNOAA 15
Epoch Orbit21574
Epoch Day270.17379925
Epoch Year2021
RAAN297.7562
Inclination98.6758
Eccentricity0.0010074
Argument of Perigee350.8865
Mean Anonmoly9.2131
Mean Motion14.26059869
Decay Rate4.2E-07
L11 25338U 98030A 21270.17379925 .00000042 00000-0 36217-4 0 9995
L22 25338 98.6758 297.7562 0010074 350.8865 9.2131 14.26059869215746

Live tracking and technical data element details for NOAA 15 (NORAD 25338). NOAA 15 can be tracked NOW for your location showing map with azimuth and elevation plus other details from your city location.

Track the satellite on the map from your city or location and see movement details for azimuth, elevation, latitude, longitude, range, height, and movement on the map or in text.







IsCatalogInMostPopularTable: catalog: 25338, numindb: 591
Update: records affected: 1



GetName: 25338 NOAA 15

Hit Count: updated at: Tue, 28 Sep 2021 16:14:47 GMT